�N����,����,�~����,�C��,���x,�C��,����,���ϕ���,�ő�u�ԕ���,�ő厞����,���˗�,�I�_���x,�n�����x,�ő啗���N��,DTYPE
"23/07/09","00:10",0.0,27.1,84.2,1000.8,245.8,1.5,4.2,252.4,0.00,24.2,24.3,"00:01:28",1
"23/07/09","00:20",0.0,27.0,84.2,1000.3,238.9,0.8,2.1,218.8,0.00,24.1,24.4,"00:16:32",1
"23/07/09","00:30",0.0,26.9,84.1,1000.3,250.7,1.1,4.0,219.7,0.00,24.0,24.5,"00:21:44",1
"23/07/09","00:40",0.0,26.8,84.2,1000.8,285.8,0.3,1.1,244.1,0.00,23.9,24.2,"00:31:52",1
"23/07/09","00:50",0.0,26.6,84.5,1000.8,199.5,0.5,0.9,262.4,0.00,23.8,24.4,"00:40:48",1
"23/07/09","01:00",0.0,26.6,84.9,1000.5,190.9,0.7,1.4,230.6,0.00,23.9,24.3,"00:53:04",1
"23/07/09","01:10",0.0,26.4,85.3,1000.3,6.0,0.5,1.3,184.5,0.00,23.8,24.2,"01:00:08",1
"23/07/09","01:20",0.0,26.2,85.6,1000.0,241.0,0.3,1.1,267.2,0.00,23.6,24.2,"01:18:16",1
"23/07/09","01:30",0.0,26.0,86.3,1000.5,266.7,0.5,1.4,246.7,0.00,23.6,24.4,"01:26:56",1
"23/07/09","01:40",0.0,25.8,86.5,1000.8,260.1,0.5,1.2,258.3,0.00,23.4,24.1,"01:32:00",1
"23/07/09","01:50",0.0,25.8,87.0,1000.5,333.6,1.1,1.7,327.0,0.00,23.5,24.2,"01:44:00",1
"23/07/09","02:00",0.0,25.8,87.5,1000.5,334.1,1.0,1.7,338.7,0.00,23.6,24.3,"01:51:44",1
"23/07/09","02:10",0.0,25.7,87.9,1000.8,357.8,0.7,1.2,342.9,0.00,23.6,24.2,"02:00:24",1
"23/07/09","02:20",0.0,25.8,88.1,1001.2,308.6,1.1,2.1,312.9,0.00,23.7,24.2,"02:12:56",1
"23/07/09","02:30",0.0,25.9,87.9,1001.0,304.9,1.1,2.1,346.7,0.00,23.8,24.4,"02:23:12",1
"23/07/09","02:40",0.0,26.0,87.6,1001.0,280.2,0.6,1.8,343.9,0.00,23.8,24.2,"02:37:28",1
"23/07/09","02:50",0.0,26.1,87.3,1000.8,329.2,1.0,1.8,337.0,0.00,23.9,24.3,"02:45:44",1
"23/07/09","03:00",0.0,26.0,87.3,1000.8,319.0,0.8,1.2,326.2,0.00,23.8,24.3,"02:50:24",1
"23/07/09","03:10",0.0,25.9,87.4,1000.5,340.2,0.7,1.3,343.0,0.00,23.7,24.2,"03:01:04",1
"23/07/09","03:20",0.0,25.7,87.9,1000.8,228.8,0.3,1.2,300.2,0.00,23.6,24.2,"03:19:28",1
"23/07/09","03:30",0.0,25.8,88.4,1000.5,322.2,1.0,1.9,344.0,0.00,23.8,24.1,"03:28:08",1
"23/07/09","03:40",0.2,25.8,89.2,1000.5,339.4,1.5,2.5,336.8,0.00,23.9,24.1,"03:35:20",1
"23/07/09","03:50",0.4,25.7,89.8,1000.5,342.5,1.1,1.8,0.0,0.00,23.9,24.1,"03:43:12",1
"23/07/09","04:00",0.0,25.7,90.4,1000.8,339.6,0.7,1.9,344.7,0.00,24.0,24.2,"03:50:48",1
"23/07/09","04:10",0.2,25.7,90.8,1001.2,339.8,0.6,1.2,350.7,0.00,24.1,24.0,"04:02:32",1
"23/07/09","04:20",0.0,25.7,91.2,1001.0,322.0,0.5,1.0,1.3,0.00,24.2,24.3,"04:10:56",1
"23/07/09","04:30",0.6,25.7,91.6,1000.8,301.2,0.6,1.9,315.4,0.00,24.3,24.2,"04:28:48",1
"23/07/09","04:40",0.4,25.5,91.8,1001.0,315.1,0.7,1.7,290.5,0.00,24.1,24.2,"04:34:16",1
"23/07/09","04:50",0.4,25.2,92.2,1000.5,326.6,1.3,2.6,311.3,0.00,23.9,24.2,"04:44:40",1
"23/07/09","05:00",0.0,25.0,92.4,1000.8,325.6,0.8,2.4,331.7,0.00,23.7,24.0,"04:50:56",1
"23/07/09","05:10",0.0,24.9,92.6,1000.8,22.2,0.5,2.0,336.5,0.00,23.7,24.2,"05:03:12",1
"23/07/09","05:20",0.0,24.9,92.8,1001.2,322.1,0.3,1.0,331.2,0.00,23.7,24.1,"05:11:36",1
"23/07/09","05:30",0.0,24.8,92.9,1001.0,332.9,0.2,0.9,333.6,0.00,23.6,24.2,"05:20:08",1
"23/07/09","05:40",0.2,24.9,93.0,1001.2,29.6,0.5,1.6,61.5,0.00,23.7,23.9,"05:36:32",1
"23/07/09","05:50",0.0,24.7,93.2,1001.2,275.0,0.5,1.3,323.1,0.00,23.6,24.2,"05:43:12",1
"23/07/09","06:00",0.0,24.8,93.5,1001.5,337.1,0.7,1.4,338.1,0.00,23.7,24.1,"05:59:36",1
"23/07/09","06:10",0.0,24.8,93.5,1001.5,342.3,0.5,1.2,335.1,0.00,23.7,24.0,"06:00:32",1
"23/07/09","06:20",1.2,24.7,93.7,1001.7,356.2,0.7,1.7,7.0,0.00,23.7,24.1,"06:18:42",1
"23/07/09","06:30",1.2,24.5,93.9,1001.5,21.1,0.6,1.8,350.3,0.00,23.5,24.2,"06:20:56",1
"23/07/09","06:40",0.0,24.5,93.9,1001.5,96.4,0.2,1.0,90.3,0.00,23.5,24.1,"06:36:32",1
"23/07/09","06:50",0.0,24.4,94.2,1001.5,335.1,0.8,2.4,315.1,0.00,23.4,24.2,"06:49:28",1
"23/07/09","07:00",0.6,24.5,94.3,1001.9,339.6,0.7,2.2,344.7,0.00,23.6,24.0,"06:51:12",1
"23/07/09","07:10",0.0,24.6,94.3,1001.7,355.6,0.3,0.9,341.9,0.02,23.7,23.9,"07:00:40",1
"23/07/09","07:20",0.0,24.7,94.4,1001.5,306.3,0.6,1.1,334.7,0.02,23.8,24.3,"07:16:16",1
"23/07/09","07:30",0.0,24.8,94.5,1001.9,345.9,1.0,2.0,341.0,0.03,23.9,24.0,"07:26:48",1
"23/07/09","07:40",0.0,24.9,94.6,1001.7,344.2,1.1,2.0,349.0,0.04,24.0,24.1,"07:34:24",1
"23/07/09","07:50",0.0,24.9,94.6,1001.9,342.8,0.7,1.2,340.0,0.03,24.0,23.9,"07:41:28",1
"23/07/09","08:00",0.0,25.0,94.7,1001.7,302.3,0.5,1.2,344.9,0.05,24.1,24.2,"07:52:08",1
"23/07/09","08:10",0.0,25.3,94.7,1002.2,206.2,0.5,1.1,207.3,0.06,24.4,24.0,"08:08:16",1
"23/07/09","08:20",0.0,25.5,94.8,1001.7,237.0,0.5,0.9,201.6,0.11,24.6,23.8,"08:10:40",1
"23/07/09","08:30",0.0,25.8,94.7,1001.7,330.3,0.5,1.0,352.8,0.13,24.9,24.0,"08:24:08",1
"23/07/09","08:40",0.0,25.8,94.6,1002.2,182.8,0.3,1.2,241.3,0.06,24.9,24.1,"08:37:20",1
"23/07/09","08:50",0.0,25.6,94.5,1001.9,193.7,0.8,1.7,191.8,0.08,24.7,23.9,"08:42:32",1
"23/07/09","09:00",0.0,25.9,94.5,1002.2,204.5,0.5,1.3,212.5,0.09,25.0,23.9,"08:51:12",1
"23/07/09","09:10",0.0,26.0,94.4,1002.2,356.9,0.5,1.3,341.0,0.06,25.1,24.0,"09:09:28",1
"23/07/09","09:20",0.0,26.0,94.4,1002.2,329.1,0.7,1.6,336.7,0.05,25.1,24.3,"09:13:12",1
"23/07/09","09:30",0.0,26.1,94.3,1002.2,323.8,0.5,1.1,338.4,0.07,25.2,24.2,"09:28:16",1
"23/07/09","09:40",0.2,26.2,94.3,1001.9,277.2,0.2,1.2,334.3,0.07,25.3,24.2,"09:30:32",1
"23/07/09","09:50",0.0,26.2,94.4,1002.2,343.2,0.6,1.4,341.9,0.09,25.3,24.0,"09:42:08",1
"23/07/09","10:00",0.2,26.5,94.3,1002.2,346.8,0.3,0.9,358.7,0.14,25.5,24.2,"09:57:36",1
"23/07/09","10:10",0.0,26.9,94.1,1001.7,169.9,0.2,0.8,130.9,0.20,25.9,24.2,"10:03:28",1
"23/07/09","10:20",0.0,27.0,93.6,1001.2,193.7,0.5,1.3,228.9,0.22,25.9,24.1,"10:14:08",1
"23/07/09","10:30",0.0,27.1,93.8,1001.2,214.0,0.5,0.9,180.4,0.16,26.1,24.2,"10:21:44",1
"23/07/09","10:40",0.0,26.7,93.7,1001.2,341.8,1.0,1.7,318.4,0.09,25.6,24.0,"10:33:12",1
"23/07/09","10:50",0.2,26.6,93.6,1001.5,346.0,0.7,1.4,352.6,0.09,25.5,24.3,"10:40:02",1
"23/07/09","11:00",0.0,26.6,93.6,1001.2,333.1,0.8,1.9,343.7,0.12,25.5,24.2,"10:54:16",1
"23/07/09","11:10",0.0,27.1,93.4,1001.2,11.8,0.6,1.3,7.0,0.17,26.0,24.2,"11:01:44",1
"23/07/09","11:20",0.0,27.0,93.2,1001.2,17.4,0.5,1.7,341.1,0.08,25.8,24.4,"11:11:52",1
"23/07/09","11:30",0.0,27.0,93.1,1001.2,0.9,0.5,1.3,338.8,0.07,25.8,24.2,"11:25:44",1
"23/07/09","11:40",0.0,27.1,92.9,1001.5,341.0,0.7,1.3,342.3,0.07,25.9,24.2,"11:30:24",1
"23/07/09","11:50",0.2,27.0,92.6,1001.0,102.9,0.3,0.8,154.2,0.04,25.7,24.3,"11:47:36",1
"23/07/09","12:00",0.0,27.0,92.6,1001.2,172.8,0.2,0.8,175.1,0.04,25.7,24.3,"11:57:28",1
"23/07/09","12:10",0.0,27.1,92.6,1001.0,135.9,0.6,1.8,125.8,0.06,25.8,24.4,"12:09:52",1
"23/07/09","12:20",0.8,26.9,92.6,1001.2,183.5,1.1,1.4,184.0,0.04,25.6,24.4,"12:12:16",1
"23/07/09","12:30",1.2,26.6,92.9,1001.0,159.0,1.0,2.2,183.7,0.05,25.4,24.4,"12:20:40",1
"23/07/09","12:40",1.2,26.8,92.8,1001.2,190.0,0.6,1.2,188.0,0.06,25.6,24.4,"12:31:12",1
"23/07/09","12:50",0.2,26.9,93.1,1001.5,141.4,0.6,1.1,135.4,0.09,25.7,24.5,"12:40:56",1
"23/07/09","13:00",0.0,26.8,93.0,1001.2,177.5,0.5,1.0,195.1,0.06,25.6,24.4,"12:55:52",1
"23/07/09","13:10",0.0,26.7,93.0,1001.2,32.9,0.2,1.4,346.1,0.03,25.5,24.4,"13:06:48",1
"23/07/09","13:20",0.2,26.7,93.1,1001.5,89.7,0.1,0.8,121.9,0.02,25.5,24.6,"13:15:36",1
"23/07/09","13:30",0.2,26.7,93.2,1001.0,33.5,0.3,1.0,117.2,0.04,25.5,24.4,"13:20:16",1
"23/07/09","13:40",0.0,26.8,93.4,1000.8,353.1,0.7,1.4,345.0,0.11,25.7,24.5,"13:31:28",1
"23/07/09","13:50",0.0,27.2,93.3,1001.2,16.9,0.2,0.6,351.9,0.13,26.1,24.4,"13:40:08",1
"23/07/09","14:00",0.0,27.6,93.3,1001.2,47.3,0.2,0.8,354.1,0.14,26.5,24.6,"13:59:28",1
"23/07/09","14:10",0.0,27.9,93.3,1001.0,71.5,0.3,1.1,51.4,0.23,26.8,24.5,"14:01:36",1
"23/07/09","14:20",0.0,28.0,93.1,1000.8,343.7,0.6,1.3,4.1,0.19,26.8,24.4,"14:10:08",1
"23/07/09","14:30",0.0,27.9,93.2,1001.0,280.1,0.6,1.4,241.9,0.13,26.7,24.6,"14:21:04",1
"23/07/09","14:40",0.0,27.9,92.7,1000.5,305.1,0.7,1.8,339.4,0.23,26.6,24.4,"14:30:48",1
"23/07/09","14:50",0.0,27.8,92.5,1000.5,269.5,1.1,3.7,330.6,0.30,26.5,24.5,"14:46:40",1
"23/07/09","15:00",0.0,28.1,91.8,1001.0,2.9,1.0,2.4,353.3,0.24,26.7,24.5,"14:58:48",1
"23/07/09","15:10",0.0,28.0,90.8,1000.8,344.6,1.3,3.4,338.1,0.22,26.4,24.5,"15:06:32",1
"23/07/09","15:20",0.0,27.9,89.8,1000.8,327.1,1.6,3.1,340.2,0.13,26.1,24.7,"15:16:40",1
"23/07/09","15:30",0.0,28.0,88.9,1000.3,314.8,1.1,2.5,339.6,0.08,26.0,24.7,"15:28:08",1
"23/07/09","15:40",0.0,27.9,87.9,1000.5,318.4,1.3,2.7,349.3,0.07,25.7,24.8,"15:32:16",1
"23/07/09","15:50",0.0,27.7,87.5,1000.3,316.0,1.3,3.1,347.0,0.05,25.5,24.8,"15:44:32",1
"23/07/09","16:00",0.2,27.6,87.3,1001.2,319.2,1.8,3.5,280.6,0.01,25.3,24.8,"15:56:56",1
"23/07/09","16:10",5.6,26.9,88.3,1001.0,315.7,1.8,5.8,327.8,0.00,24.8,24.5,"16:04:42",1
"23/07/09","16:20",1.0,26.7,89.5,1000.5,340.1,1.2,2.9,331.3,0.06,24.9,24.6,"16:12:00",1
"23/07/09","16:30",0.2,26.8,90.2,1000.5,340.6,0.6,1.6,343.0,0.10,25.1,24.8,"16:24:08",1
"23/07/09","16:40",0.0,27.0,90.6,1000.0,54.9,0.3,1.0,18.1,0.11,25.4,24.7,"16:33:36",1
"23/07/09","16:50",0.0,27.1,90.9,999.6,45.8,0.6,1.7,17.6,0.08,25.5,24.9,"16:44:40",1
"23/07/09","17:00",0.0,27.0,91.1,999.8,49.8,0.3,1.2,8.9,0.08,25.5,24.7,"16:50:32",1
"23/07/09","17:10",0.0,27.0,91.3,1000.0,103.0,0.3,1.9,60.2,0.03,25.5,24.8,"17:09:44",1
"23/07/09","17:20",0.0,26.9,91.8,1000.3,67.7,0.8,1.8,15.9,0.08,25.5,24.9,"17:14:24",1
"23/07/09","17:30",0.0,26.8,91.8,1000.5,348.5,1.1,2.0,23.2,0.02,25.4,24.9,"17:26:00",1
"23/07/09","17:40",0.0,26.7,91.9,1000.8,347.2,1.0,1.7,334.0,0.01,25.3,24.8,"17:34:00",1
"23/07/09","17:50",0.0,26.8,92.1,1000.8,4.0,0.2,1.0,297.4,0.04,25.4,24.7,"17:40:48",1
"23/07/09","18:00",0.0,27.1,92.2,1000.5,110.5,0.3,1.1,152.7,0.07,25.8,24.7,"17:51:04",1
"23/07/09","18:10",0.0,27.1,92.3,1000.3,359.3,0.3,1.2,3.3,0.07,25.8,24.9,"18:08:00",1
"23/07/09","18:20",0.0,27.2,92.3,999.6,304.7,0.6,1.6,347.9,0.07,25.9,24.8,"18:12:16",1
"23/07/09","18:30",0.0,27.2,92.3,999.8,309.2,0.7,1.4,322.6,0.05,25.9,24.7,"18:24:16",1
"23/07/09","18:40",0.0,27.1,92.3,1000.0,267.6,1.0,2.8,229.6,0.05,25.8,24.9,"18:36:24",1
"23/07/09","18:50",0.0,27.0,92.3,1000.3,235.5,1.0,2.4,221.5,0.04,25.7,24.9,"18:40:48",1
"23/07/09","19:00",0.0,27.0,92.4,1000.5,295.4,0.5,1.3,338.7,0.03,25.7,24.9,"18:56:16",1
"23/07/09","19:10",0.0,27.2,92.4,1000.8,15.3,0.6,1.3,1.9,0.04,25.9,24.8,"19:07:28",1
"23/07/09","19:20",0.0,27.1,92.3,1000.8,286.5,0.7,2.0,236.9,0.02,25.8,24.8,"19:17:36",1
"23/07/09","19:30",0.0,26.9,92.3,1001.0,289.0,0.7,2.0,244.5,0.01,25.6,24.8,"19:23:04",1
"23/07/09","19:40",0.0,26.8,91.9,1000.8,283.2,0.5,1.8,243.9,0.00,25.4,24.9,"19:30:56",1
"23/07/09","19:50",0.0,26.6,92.0,1001.2,344.8,0.6,1.4,358.4,0.00,25.2,24.8,"19:48:24",1
"23/07/09","20:00",0.0,26.4,91.9,1001.2,351.7,0.6,1.3,5.8,0.00,25.0,24.8,"19:52:40",1
"23/07/09","20:10",0.0,26.1,92.0,1001.5,274.7,0.6,1.3,346.2,0.00,24.7,24.7,"20:02:40",1
"23/07/09","20:20",0.0,26.0,92.1,1001.5,338.8,0.7,1.9,342.3,0.00,24.7,24.7,"20:18:56",1
"23/07/09","20:30",0.0,25.8,92.3,1001.7,23.8,0.6,1.7,359.9,0.00,24.5,24.8,"20:20:02",1
"23/07/09","20:40",0.0,25.8,92.5,1001.7,351.3,1.2,1.9,7.8,0.00,24.5,24.9,"20:35:44",1
"23/07/09","20:50",0.0,25.8,92.7,1001.9,336.2,1.0,1.8,335.5,0.00,24.6,24.9,"20:44:48",1
"23/07/09","21:00",0.0,25.7,92.8,1001.9,299.5,0.7,1.2,297.3,0.00,24.5,24.7,"20:50:16",1
"23/07/09","21:10",0.0,25.6,92.9,1002.4,273.6,0.6,1.1,263.9,0.00,24.4,24.7,"21:08:24",1
"23/07/09","21:20",0.0,25.6,93.1,1002.4,309.6,1.1,1.8,303.4,0.00,24.4,24.5,"21:15:52",1
"23/07/09","21:30",0.0,25.7,93.3,1002.4,318.3,1.1,1.6,334.0,0.00,24.6,24.7,"21:25:04",1
"23/07/09","21:40",0.0,25.6,93.4,1001.9,335.3,0.7,1.2,340.7,0.00,24.5,24.7,"21:37:04",1
"23/07/09","21:50",0.0,25.5,93.5,1002.4,332.3,1.1,1.7,319.4,0.00,24.4,24.9,"21:46:32",1
"23/07/09","22:00",0.0,25.4,93.6,1002.2,313.2,1.1,2.1,301.5,0.00,24.3,24.5,"21:54:08",1
"23/07/09","22:10",0.0,25.3,93.8,1002.6,197.3,0.3,1.3,344.2,0.00,24.3,24.7,"22:00:32",1
"23/07/09","22:20",0.0,25.5,93.9,1002.6,255.1,1.0,2.1,238.7,0.00,24.5,24.6,"22:18:40",1
"23/07/09","22:30",0.0,25.5,93.9,1002.6,336.0,1.2,1.9,346.3,0.00,24.5,24.5,"22:29:28",1
"23/07/09","22:40",0.0,25.3,94.0,1002.4,294.8,0.5,1.4,324.6,0.00,24.3,24.6,"22:30:08",1
"23/07/09","22:50",0.0,25.3,94.1,1002.6,41.1,0.3,1.2,353.9,0.00,24.3,24.7,"22:42:56",1
"23/07/09","23:00",0.0,25.3,94.3,1002.4,249.7,0.7,1.9,243.1,0.00,24.4,24.7,"22:58:48",1
"23/07/09","23:10",0.0,25.2,94.3,1002.6,317.4,0.7,1.7,347.2,0.00,24.3,24.7,"23:02:16",1
"23/07/09","23:20",0.0,25.3,94.4,1002.4,325.6,0.8,1.3,343.4,0.00,24.4,24.6,"23:16:32",1
"23/07/09","23:30",0.0,25.4,94.5,1002.6,333.7,1.0,1.6,326.8,0.00,24.5,24.4,"23:25:36",1
"23/07/09","23:40",0.0,25.4,94.6,1002.6,324.1,1.0,1.6,337.7,0.00,24.5,24.5,"23:39:28",1
"23/07/09","23:50",0.0,25.5,94.6,1002.9,335.5,1.5,3.2,339.7,0.00,24.6,24.5,"23:47:04",1
"23/07/09","24:00",0.0,25.5,94.7,1002.4,307.7,1.0,2.6,341.4,0.00,24.6,24.4,"23:51:20",1
